Overview Statistics Trail Chart Weather Telemetry Raw packets
 

This is the latest recevied weather packets stored in our database for station/object KB9HUO. If no packets are shown the sender has not sent any weather packets the latest 10 day(s).

<< 66 67 68 69 70 71 72 >>
Time Temp. Humidity Pressure Rain* Wind** Luminosity Snow
1788202988 33.89° C 60% 1019.7 hPa 0 mm - 503 W/m² -
1788202682 33.89° C 58% 1019.7 hPa 0 mm - 527 W/m² -
1788202378 33.89° C 59% 1019.7 hPa 0 mm - 388 W/m² -
1788202076 33.89° C 63% 1020 hPa 0 mm - 375 W/m² -
1788201772 33.89° C 58% 1019.8 hPa 0 mm - 572 W/m² -
1788201467 33.89° C 60% 1019.8 hPa 0 mm - 668 W/m² -
1788201166 33.89° C 59% 1020.1 hPa 0 mm - 670 W/m² -
1788200865 32.78° C 61% 1020.2 hPa 0 mm - 670 W/m² -
1788200561 32.78° C 64% 1020.3 hPa 0 mm - 695 W/m² -
1788200256 32.78° C 62% 1020.2 hPa 0 mm - 571 W/m² -
1788199952 33.33° C 62% 1020.3 hPa 0 mm - 716 W/m² -
1788199651 33.33° C 62% 1020.4 hPa 0 mm - 725 W/m² -
1788199346 32.78° C 63% 1020.4 hPa 0 mm - 700 W/m² -
1788199045 33.33° C 61% 1020.3 hPa 0 mm - 698 W/m² -
1788198743 33.33° C 60% 1020.4 hPa 0 mm - 709 W/m² -
1788198442 32.78° C 62% 1020.4 hPa 0 mm - 720 W/m² -
1788198138 33.33° C 60% 1020.5 hPa 0 mm - 166 W/m² -
1788197837 32.78° C 62% 1020.6 hPa 0 mm - 712 W/m² -
1788197533 32.78° C 63% 1020.5 hPa 0 mm - 713 W/m² -
1788197232 32.78° C 62% 1020.5 hPa 0 mm - 707 W/m² -
1788196940 32.78° C 61% 1020.6 hPa 0 mm - 702 W/m² -
1788196622 32.78° C 63% 1020.7 hPa 0 mm - 700 W/m² -
1788196320 32.78° C 63% 1020.8 hPa 0 mm - 692 W/m² -
1788196016 32.78° C 63% 1020.7 hPa 0 mm - 702 W/m² -
1788195713 32.78° C 62% 1020.8 hPa 0 mm - 683 W/m² -

* Rain latest hour (hover to see other rain measurements)
** Current wind speed in m/s (hover to see current wind gust speed)